Temperature
19 18 18 18 18 18 18 17 17 17 17 16 16 16 16 15 15 15 15 15 14 14 14 14 14 14 14 14 14 14 14 14 14 15 15 15 15 15 15 15 15 15 15
19 18 18 18 18 18 18 17 17 17 17 16 16 16 16 15 15 15 15 15 15 15 14 14 14 14 14 14 14 14 14 14 14 14 15 16 16 15 15 15 15 15 15
20 19 18 18 18 18 18 18 17 17 17 16 16 16 16 15 15 15 15 15 15 15 14 14 14 14 14 14 13 13 13 13 14 14 14 15 16 15 15 15 15 15 15
19 19 18 18 18 18 18 17 17 17 17 16 16 16 16 15 15 15 15 14 14 14 14 14 14 14 14 13 13 13 13 13 13 13 13 13 14 14 15 15 15 14 14
19 18 18 18 18 18 18 17 17 17 17 16 16 16 16 15 15 15 15 14 14 14 14 14 14 14 14 13 13 13 13 13 13 13 13 13 13 14 14 15 14 15 15
18 18 18 18 18 18 18 17 17 17 17 17 16 16 15 15 15 15 15 14 14 14 14 14 14 14 14 13 13 13 13 13 13 13 13 13 13 13 14 14 14 14 14
18 18 17 17 17 18 17 17 17 17 17 16 16 16 15 15 15 15 14 14 14 14 14 14 14 14 13 13 13 13 13 13 13 13 13 13 13 13 13 13 14 14 14
18 18 17 17 18 17 17 17 17 17 16 16 15 15 15 15 15 15 14 14 14 14 14 14 13 13 13 13 13 13 13 13 12 12 12 12 13 13 13 13 13 14 14
18 18 17 17 17 17 17 17 17 16 16 16 15 15 15 15 15 14 14 14 14 14 13 13 13 13 13 13 13 13 13 12 12 12 12 12 12 12 12 12 13 13 14
18 17 17 17 17 17 17 17 16 16 16 16 15 15 15 15 15 14 14 14 13 13 13 13 13 13 13 13 13 12 12 12 12 12 12 12 12 12 12 12 12 12 13
18 17 17 17 17 17 17 16 16 16 16 16 15 15 15 15 14 14 14 14 13 13 13 13 13 13 12 12 12 12 12 12 12 12 12 12 12 11 12 12 12 12 12
18 17 17 17 17 17 16 16 16 16 16 15 15 15 15 14 14 14 13 13 13 13 13 13 12 12 12 12 12 12 12 11 11 11 11 11 11 11 11 11 11 11 12
17 17 16 16 16 16 16 16 16 15 15 15 15 14 14 14 14 13 13 13 13 12 12 12 12 12 11 11 11 11 11 11 11 11 11 11 11 11 11 11 11 11 11
17 17 16 16 16 16 16 16 15 15 15 15 15 14 14 14 14 13 13 13 12 12 12 12 12 11 11 11 11 11 11 11 11 11 11 11 11 11 11 11 11 11 11
17 17 16 16 16 16 16 16 15 15 15 15 14 14 14 13 13 13 13 12 12 12 12 11 11 11 11 11 11 10 10 10 10 10 10 10 11 11 11 11 11 10 10
18 17 17 16 16 16 16 16 15 15 15 14 14 14 14 13 13 13 12 12 12 12 11 11 11 11 10 11 11 10 10 10 10 10 10 10 10 10 10 11 11 11 10
18 17 17 17 16 16 16 16 15 15 14 14 14 14 13 13 13 12 12 12 12 11 11 11 11 10 10 11 10 10 10 9 10 10 10 10 10 10 10 10 10 10 10
18 18 17 17 17 16 16 15 15 15 14 14 14 13 13 13 12 12 12 11 11 11 11 11 10 10 10 10 10 10 9 9 9 9 9 9 9 10 10 10 9 10 10
18 18 17 17 17 16 16 15 15 14 14 14 13 13 13 12 12 12 11 11 11 11 10 10 10 10 9 10 10 10 9 9 9 9 9 9 9 9 9 9 9 9 9
18 18 17 17 17 16 16 15 14 14 14 14 13 13 12 12 12 11 11 11 10 10 10 10 10 9 9 9 9 9 9 9 9 9 9 9 9 9 9 9 9 9 9
18 18 17 17 17 16 15 15 14 14 14 14 13 12 12 12 11 11 11 10 10 10 9 9 9 9 9 9 9 9 8 8 8 8 8 9 9 9 9 9 8 8 8
18 18 17 17 16 16 15 15 14 14 14 13 13 12 12 11 11 11 10 10 10 9 9 9 9 9 9 9 9 8 8 8 8 8 8 8 8 8 8 8 8 8 8
17 17 17 16 16 16 15 15 14 14 13 13 13 12 11 11 11 10 10 10 9 9 9 9 8 8 8 8 8 8 8 8 8 7 7 8 8 8 8 8 8 8 7
17 17 16 16 16 15 15 15 14 14 13 13 12 12 11 11 10 10 10 9 9 9 9 8 8 8 8 8 8 8 7 7 7 7 7 7 7 7 7 7 7 7 7
16 16 16 16 15 15 15 14 14 13 13 12 12 11 11 10 10 10 10 9 9 9 9 8 8 8 8 8 8 7 7 7 7 7 6 6 7 7 7 7 7 7 7
16 16 15 15 15 14 14 14 13 13 12 12 11 11 10 10 10 10 9 9 9 9 9 8 8 8 8 8 7 7 7 7 7 6 6 6 6 6 6 7 7 6 6
Wind_Speed
6 6 6 6 6 6 5 5 4 4 3 2 2 2 2 2 3 4 5 5 6 6 6 5 6 6 5 6 7 6 6 6 6 4 3 1 1 2 3 3 3 3 3
8 7 7 6 6 5 4 4 4 3 2 2 1 1 2 2 3 3 4 5 6 6 6 6 5 5 4 6 6 6 6 5 6 5 4 2 0 2 2 2 3 4 3
9 8 8 7 6 5 5 4 4 4 3 2 2 1 1 1 2 3 3 4 5 5 6 6 5 5 5 5 6 6 6 6 6 6 5 4 3 4 2 3 3 4 4
9 8 8 8 7 6 5 5 4 4 3 3 2 2 1 2 3 3 3 3 4 5 5 5 5 5 5 5 5 5 5 5 5 4 4 4 4 4 3 2 4 5 4
10 9 9 8 7 6 5 5 5 4 3 3 2 1 2 2 2 2 3 3 4 5 5 6 5 5 5 5 5 5 5 5 5 5 5 4 3 4 4 5 6 4 4
11 10 9 8 7 7 6 5 5 4 3 3 2 2 2 2 3 3 4 3 3 4 6 6 5 5 5 5 5 5 5 5 5 5 4 5 5 5 4 5 6 6 5
12 11 11 10 8 8 7 6 6 5 4 3 3 2 2 2 2 3 3 4 4 4 6 5 5 5 5 6 5 5 5 5 5 5 4 4 5 5 5 6 6 6 5
12 12 11 10 9 9 8 7 6 5 4 3 3 2 2 1 2 2 3 3 4 4 5 5 5 6 6 6 5 5 5 5 5 5 5 4 5 5 5 5 6 7 5
13 12 11 10 10 9 8 7 7 6 5 4 3 2 2 1 2 2 2 3 3 4 5 5 5 5 6 6 5 4 5 5 5 5 5 5 4 4 5 4 5 6 6
13 13 12 11 10 9 8 8 7 6 5 4 3 2 1 1 1 1 2 3 3 4 4 5 5 5 6 6 5 5 6 5 5 5 5 5 5 4 4 4 4 5 6
14 13 12 11 10 9 9 8 7 6 5 4 4 3 2 1 1 1 2 2 2 3 4 4 5 6 6 6 5 6 6 6 6 6 5 5 5 5 4 4 4 5 5
14 13 13 12 11 10 10 9 8 7 6 5 4 3 3 2 1 1 1 2 2 3 4 4 5 5 6 6 6 6 6 7 7 7 6 6 5 5 5 4 5 5 5
14 13 13 12 12 11 10 9 8 7 6 5 5 4 3 2 1 0 1 1 2 3 3 4 5 5 6 6 6 6 6 6 7 7 7 7 6 6 5 6 5 5 5
14 14 14 13 12 11 10 9 8 8 7 6 5 4 3 2 1 0 1 1 2 3 3 4 4 5 5 6 6 6 7 7 7 6 6 6 6 6 7 6 7 6 6
15 16 15 14 13 12 11 10 9 8 8 7 6 4 3 2 2 1 1 1 2 3 4 4 4 5 5 6 8 8 7 7 7 7 6 5 5 6 6 7 7 7 6
16 16 16 15 15 14 13 11 10 9 8 7 6 4 3 3 2 2 1 1 2 3 3 4 4 5 4 7 9 10 8 7 7 7 7 6 5 5 6 7 8 9 8
15 16 16 16 15 14 13 12 11 9 9 7 6 5 5 4 3 2 1 2 2 2 3 4 4 5 5 6 8 9 8 7 7 8 7 7 6 7 7 7 8 8 8
14 14 14 14 14 13 13 12 11 10 9 8 7 6 5 5 3 3 2 3 3 2 3 4 5 5 5 6 8 10 9 7 7 7 8 8 8 7 9 9 9 8 7
11 12 13 13 13 13 13 12 12 11 10 9 8 7 7 5 4 4 3 3 3 3 4 4 5 6 5 5 8 11 7 7 7 7 7 8 8 6 10 10 10 9 8
9 10 11 12 13 13 13 13 12 12 11 10 8 8 7 6 6 5 4 3 4 4 5 5 6 6 6 5 7 11 7 7 7 7 7 5 7 8 10 10 10 10 9
9 9 11 11 12 13 13 13 13 12 11 9 8 8 7 7 6 5 5 5 4 5 5 6 6 6 6 5 6 9 7 8 8 7 7 6 5 8 10 11 10 9 10
8 10 10 10 10 12 13 13 13 11 9 9 9 8 8 7 6 6 6 6 5 6 6 6 6 6 6 5 5 7 9 10 9 8 8 7 8 10 11 10 9 11 11
7 8 9 9 10 11 12 13 11 10 10 9 9 8 8 7 7 7 7 6 6 6 6 6 6 6 6 5 6 8 9 10 9 9 9 11 12 12 10 9 10 10 8
6 7 9 9 9 10 11 11 10 10 10 10 9 9 9 8 8 7 7 7 7 7 7 7 7 7 7 7 6 7 7 8 9 9 9 10 12 11 10 10 8 7 7
5 6 8 8 9 9 10 10 10 10 11 10 9 9 9 8 8 8 7 8 8 7 8 7 8 8 8 7 8 9 9 9 9 11 10 10 9 9 8 7 7 7 7
5 6 7 7 8 8 9 9 10 10 11 10 9 8 8 7 8 8 8 8 10 8 10 10 11 9 9 10 10 11 12 13 13 11 10 10 10 10 9 9 8 8 8
Wind_Direction
150 150 148 146 147 143 134 128 130 125 126 117 104 88 78 63 58 46 35 25 20 16 16 10 17 11 17 11 8 3 5 5 354 342 343 20 64 26 19 360 352 1 354
163 155 156 152 150 145 144 141 134 129 121 105 91 80 64 55 50 39 36 24 19 15 8 11 11 16 11 13 12 8 0 8 5 350 337 342 118 38 22 11 358 352 351
175 165 162 157 155 150 147 145 138 132 126 128 124 120 117 121 78 49 34 21 17 17 10 9 6 7 7 12 6 4 3 1 10 12 356 345 357 344 9 10 2 359 347
180 171 167 163 160 154 152 148 141 131 123 128 120 93 56 46 35 18 22 17 22 18 12 7 3 4 5 3 0 7 357 351 357 5 4 353 341 323 332 345 360 353 350
182 175 172 166 161 154 154 149 139 129 121 115 104 95 71 57 47 30 25 14 26 18 14 5 2 1 360 359 356 353 351 350 347 346 344 339 326 312 313 320 334 339 346
181 176 172 167 161 156 155 152 147 134 128 126 117 96 79 59 46 32 23 16 25 20 19 7 2 1 359 356 352 348 350 347 344 336 337 333 328 330 322 314 321 328 334
180 177 174 173 168 164 162 161 156 147 144 141 127 108 94 70 45 27 30 18 24 25 19 11 4 5 2 358 352 348 347 347 344 339 336 331 323 320 315 309 312 314 314
181 179 177 175 170 168 167 167 160 155 153 155 142 123 111 77 50 31 22 22 19 19 14 12 9 8 4 358 357 346 349 346 343 343 337 325 326 321 316 308 310 308 311
181 179 176 176 173 172 172 170 167 163 162 163 156 142 113 84 58 35 24 23 21 16 13 9 8 10 7 0 354 352 350 348 343 339 336 328 330 323 317 310 303 303 306
182 179 178 177 175 172 170 171 173 168 164 166 162 143 136 113 70 28 28 23 21 19 11 8 7 7 6 2 358 352 353 345 345 336 333 329 328 328 319 309 304 295 295
182 180 178 175 173 171 172 173 175 172 165 164 160 159 150 140 126 61 31 13 9 10 7 3 0 4 3 3 360 353 350 344 342 338 336 333 334 328 325 317 307 299 295
182 180 177 174 174 175 176 177 177 173 167 164 162 157 148 154 144 75 26 4 5 1 358 359 357 358 355 354 353 348 343 340 338 336 331 328 328 325 325 319 312 306 300
182 180 179 180 179 178 178 178 178 174 168 168 169 170 168 165 160 52 14 353 354 351 351 351 350 348 347 346 343 339 336 336 335 333 330 325 323 322 325 314 312 308 304
184 183 184 185 183 182 181 179 179 176 174 174 181 185 183 181 202 235 326 334 337 332 335 341 341 341 339 339 337 335 329 327 328 328 327 325 325 324 324 315 312 308 304
189 190 189 187 185 185 184 182 180 179 180 182 189 192 192 194 207 212 270 318 329 323 327 327 331 337 334 345 338 328 325 323 322 322 320 323 318 325 319 312 312 307 300
196 194 193 191 191 189 187 184 183 182 183 186 189 184 191 190 202 222 257 303 315 323 326 323 328 331 340 355 336 321 318 317 316 319 319 315 300 304 286 292 300 299 294
198 196 195 194 194 192 188 186 185 180 184 188 188 187 191 193 205 216 233 262 282 311 317 320 322 321 342 343 331 324 315 313 315 317 318 318 315 305 309 294 272 271 263
198 197 195 193 193 189 186 184 182 184 188 192 193 193 195 197 202 214 234 255 278 295 302 310 313 317 328 335 328 319 305 308 311 311 312 310 310 324 323 309 300 296 290
198 194 192 188 187 186 184 183 185 188 192 196 198 196 198 200 204 215 231 249 271 282 290 298 303 303 310 330 324 314 307 305 306 309 311 311 308 339 320 304 302 299 296
188 184 182 183 184 184 183 188 191 193 197 198 200 200 202 204 210 220 231 242 257 270 281 289 294 299 304 329 318 311 305 306 307 307 305 308 307 319 313 303 301 299 304
177 177 180 183 185 182 184 193 196 200 199 197 199 202 206 212 216 223 231 242 253 266 275 282 286 291 297 299 303 308 306 309 306 304 304 312 314 306 304 298 298 303 305
174 178 181 184 184 185 189 197 201 200 194 194 199 206 210 214 217 223 234 244 252 260 269 277 285 288 289 292 295 296 296 305 301 300 301 310 317 302 296 291 296 295 291
176 180 183 183 186 190 196 202 199 192 192 196 204 210 214 217 222 226 232 241 249 259 270 277 284 288 292 285 269 277 285 289 290 294 303 301 295 289 283 272 277 281 281
179 180 184 189 192 194 201 206 197 193 198 204 209 213 217 221 225 231 237 241 248 256 266 274 280 286 288 291 295 294 289 275 279 288 287 273 271 265 268 275 274 276 282
180 185 193 197 198 196 201 204 201 199 206 211 215 219 223 227 232 234 241 246 249 255 262 270 276 282 285 297 310 299 295 297 300 302 293 289 289 285 283 283 284 282 280
184 189 196 201 203 200 203 203 204 206 212 218 220 223 226 229 234 241 245 241 249 247 247 257 268 275 275 288 291 288 288 290 292 291 284 284 286 286 286 285 286 283 281
Height
1563 1564 1565 1567 1568 1569 1570 1570 1570 1570 1570 1570 1570 1570 1569 1568 1567 1566 1564 1563 1562 1560 1559 1557 1555 1553 1551 1550 1548 1546 1545 1543 1541 1540 1539 1538 1537 1536 1534 1534 1533 1533 1532
1562 1563 1565 1566 1568 1568 1569 1570 1570 1570 1570 1569 1570 1569 1569 1568 1567 1566 1565 1564 1562 1560 1559 1558 1556 1554 1552 1550 1549 1547 1545 1544 1542 1541 1540 1539 1539 1536 1535 1534 1533 1532 1531
1560 1562 1564 1565 1566 1568 1568 1569 1569 1569 1569 1569 1569 1569 1568 1568 1568 1567 1565 1564 1562 1561 1559 1558 1556 1554 1553 1551 1549 1548 1546 1545 1543 1542 1542 1540 1538 1537 1536 1535 1533 1532 1531
1558 1560 1562 1564 1565 1566 1567 1568 1569 1569 1569 1569 1569 1569 1569 1569 1567 1566 1565 1564 1562 1561 1559 1558 1556 1555 1553 1552 1550 1548 1547 1545 1544 1543 1541 1541 1540 1539 1536 1536 1534 1532 1531
1556 1558 1560 1562 1564 1565 1566 1567 1568 1568 1568 1568 1568 1568 1568 1568 1567 1566 1565 1564 1562 1561 1559 1558 1557 1555 1554 1552 1550 1548 1547 1546 1544 1543 1542 1541 1539 1539 1537 1535 1534 1532 1531
1554 1556 1559 1561 1562 1564 1565 1566 1567 1567 1567 1568 1568 1568 1567 1567 1566 1566 1565 1564 1562 1561 1559 1558 1556 1555 1554 1552 1550 1548 1547 1545 1544 1543 1542 1541 1540 1538 1537 1535 1533 1531 1530
1551 1554 1556 1559 1560 1562 1563 1565 1566 1566 1566 1567 1567 1567 1567 1566 1566 1565 1564 1563 1562 1560 1559 1557 1556 1554 1553 1551 1549 1548 1546 1545 1543 1542 1541 1540 1539 1538 1536 1535 1533 1531 1530
1548 1551 1554 1556 1558 1560 1562 1563 1564 1565 1566 1566 1567 1567 1566 1566 1565 1564 1563 1562 1561 1560 1558 1556 1555 1553 1552 1550 1549 1547 1546 1544 1543 1541 1540 1539 1538 1536 1535 1534 1532 1530 1529
1546 1549 1551 1554 1556 1558 1560 1562 1563 1564 1565 1565 1565 1566 1565 1565 1564 1563 1562 1561 1560 1558 1557 1556 1554 1552 1551 1549 1547 1546 1545 1543 1541 1540 1539 1537 1536 1534 1533 1532 1531 1531 1528
1543 1546 1549 1551 1554 1556 1558 1560 1561 1563 1563 1564 1564 1564 1564 1563 1563 1562 1561 1560 1559 1558 1556 1555 1553 1552 1550 1548 1546 1545 1543 1542 1540 1538 1537 1535 1534 1532 1531 1530 1529 1528 1528
1540 1543 1546 1549 1551 1554 1556 1558 1559 1561 1561 1562 1562 1562 1562 1562 1561 1561 1560 1559 1558 1557 1556 1554 1552 1551 1549 1547 1545 1544 1542 1540 1539 1537 1535 1533 1532 1531 1529 1528 1527 1526 1526
1537 1540 1543 1546 1549 1551 1554 1556 1557 1559 1559 1560 1561 1561 1561 1560 1560 1560 1559 1558 1557 1556 1555 1553 1552 1550 1548 1546 1544 1542 1540 1539 1537 1535 1533 1532 1530 1529 1528 1526 1525 1524 1523
1534 1538 1540 1543 1546 1549 1551 1553 1555 1556 1557 1558 1559 1559 1559 1559 1559 1558 1557 1557 1556 1555 1553 1552 1550 1548 1546 1544 1542 1541 1539 1537 1535 1533 1531 1529 1528 1527 1526 1524 1523 1522 1521
1531 1534 1537 1540 1543 1546 1548 1551 1552 1554 1555 1556 1557 1557 1558 1557 1557 1556 1555 1555 1554 1553 1552 1550 1548 1546 1545 1543 1541 1539 1537 1535 1533 1531 1529 1527 1526 1525 1524 1522 1521 1520 1519
1527 1530 1533 1537 1540 1543 1545 1548 1550 1551 1552 1553 1554 1555 1555 1555 1554 1554 1553 1553 1552 1550 1549 1548 1546 1544 1543 1541 1539 1537 1535 1533 1531 1529 1528 1526 1524 1522 1521 1520 1519 1517 1516
1523 1526 1530 1533 1536 1539 1542 1544 1546 1548 1549 1551 1552 1552 1552 1552 1552 1552 1551 1550 1549 1548 1547 1546 1544 1542 1540 1538 1536 1534 1533 1531 1529 1527 1526 1524 1523 1520 1519 1517 1516 1514 1513
1519 1522 1525 1528 1532 1535 1538 1541 1543 1545 1547 1548 1549 1549 1550 1550 1550 1549 1549 1548 1547 1546 1544 1543 1541 1540 1538 1535 1533 1531 1530 1529 1527 1525 1523 1521 1520 1518 1517 1515 1513 1511 1510
1515 1518 1521 1525 1528 1532 1534 1537 1540 1542 1543 1545 1546 1546 1546 1547 1547 1546 1546 1545 1545 1543 1542 1540 1539 1537 1535 1533 1531 1529 1527 1526 1524 1522 1520 1519 1517 1515 1513 1511 1510 1508 1507
1512 1515 1518 1521 1525 1528 1531 1534 1536 1538 1540 1541 1542 1543 1543 1544 1544 1544 1543 1543 1542 1541 1539 1538 1536 1534 1532 1530 1528 1526 1524 1523 1521 1519 1517 1515 1514 1511 1509 1508 1506 1504 1503
1509 1512 1515 1518 1521 1524 1527 1530 1532 1534 1536 1537 1539 1540 1540 1540 1541 1541 1540 1540 1539 1538 1536 1535 1533 1531 1529 1527 1525 1523 1522 1520 1518 1516 1514 1511 1509 1507 1505 1504 1502 1500 1498
1506 1509 1512 1515 1518 1521 1523 1526 1528 1530 1532 1534 1535 1536 1536 1537 1537 1537 1537 1536 1536 1534 1533 1532 1530 1528 1526 1524 1522 1520 1518 1517 1515 1513 1510 1508 1505 1503 1501 1499 1498 1496 1493
1504 1506 1509 1512 1514 1517 1520 1522 1524 1526 1528 1530 1531 1532 1533 1533 1533 1533 1533 1533 1532 1531 1530 1528 1527 1525 1523 1520 1518 1516 1514 1512 1511 1508 1506 1504 1501 1499 1496 1494 1493 1491 1489
1502 1504 1506 1509 1511 1513 1516 1518 1520 1522 1524 1525 1526 1528 1529 1529 1529 1530 1529 1529 1528 1527 1526 1525 1523 1521 1519 1517 1514 1512 1510 1508 1506 1503 1501 1499 1496 1493 1491 1490 1488 1486 1484
1500 1502 1504 1505 1507 1509 1512 1514 1516 1518 1519 1521 1522 1523 1524 1525 1525 1525 1525 1524 1524 1523 1522 1520 1518 1517 1515 1513 1510 1508 1506 1504 1501 1499 1496 1493 1490 1488 1486 1484 1483 1481 1479
1498 1499 1501 1502 1504 1506 1508 1510 1512 1514 1515 1517 1518 1519 1520 1520 1520 1520 1520 1519 1519 1518 1517 1515 1514 1512 1510 1508 1506 1504 1501 1499 1497 1494 1491 1489 1486 1484 1482 1480 1478 1476 1474
1496 1497 1498 1499 1501 1503 1504 1506 1508 1509 1511 1513 1514 1514 1515 1515 1515 1515 1514 1513 1513 1512 1511 1509 1508 1506 1504 1502 1500 1498 1496 1493 1491 1488 1485 1483 1481 1479 1476 1474 1472 1471 1469